TimePDT,TemperatureF,Dew PointF,Humidity,Sea Level PressureIn,VisibilityMPH,Wind Direction,Wind SpeedMPH,Gust SpeedMPH,PrecipitationIn,Events,Conditions,WindDirDegrees,DateUTC
12:15 AM,57.2,48.2,72,30.19,10.0,SSW,4.6,-,N/A,,Clear,210,2013-07-22 07:15:00
12:35 AM,57.2,48.2,72,30.20,10.0,Calm,Calm,-,N/A,,Clear,0,2013-07-22 07:35:00
12:55 AM,55.4,46.4,72,30.20,10.0,SSW,3.5,-,N/A,,Clear,210,2013-07-22 07:55:00
1:15 AM,57.2,44.6,63,30.20,10.0,SE,3.5,-,N/A,,Clear,130,2013-07-22 08:15:00
1:35 AM,55.4,41.0,58,30.20,10.0,SSW,4.6,-,N/A,,Clear,200,2013-07-22 08:35:00
1:55 AM,53.6,44.6,72,30.20,10.0,Calm,Calm,-,N/A,,Clear,0,2013-07-22 08:55:00
2:15 AM,53.6,44.6,72,30.20,10.0,Calm,Calm,-,N/A,,Clear,0,2013-07-22 09:15:00
2:35 AM,51.8,42.8,71,30.20,10.0,SW,4.6,-,N/A,,Unknown,220,2013-07-22 09:35:00
2:55 AM,53.6,41.0,62,30.20,10.0,NW,3.5,-,N/A,,Clear,320,2013-07-22 09:55:00
3:15 AM,53.6,42.8,67,30.21,10.0,Calm,Calm,-,N/A,,Clear,0,2013-07-22 10:15:00
3:35 AM,48.2,41.0,76,30.21,10.0,SE,3.5,-,N/A,,Clear,130,2013-07-22 10:35:00
3:55 AM,48.2,41.0,76,30.21,10.0,Calm,Calm,-,N/A,,Clear,0,2013-07-22 10:55:00
4:15 AM,50.0,41.0,71,30.21,10.0,Calm,Calm,-,N/A,,Clear,0,2013-07-22 11:15:00
4:35 AM,51.8,41.0,67,30.21,10.0,Calm,Calm,-,N/A,,Clear,0,2013-07-22 11:35:00
4:55 AM,48.2,42.8,82,30.21,10.0,Calm,Calm,-,N/A,,Clear,0,2013-07-22 11:55:00
5:15 AM,50.0,44.6,82,30.22,10.0,Calm,Calm,-,N/A,,Clear,0,2013-07-22 12:15:00
5:35 AM,48.2,42.8,82,30.22,10.0,Calm,Calm,-,N/A,,Clear,0,2013-07-22 12:35:00
5:55 AM,48.2,42.8,82,30.22,10.0,Calm,Calm,-,N/A,,Clear,0,2013-07-22 12:55:00
6:35 AM,48.2,41.0,76,30.23,10.0,Calm,Calm,-,N/A,,Clear,0,2013-07-22 13:35:00
6:55 AM,51.8,42.8,71,30.24,10.0,Calm,Calm,-,N/A,,Scattered Clouds,0,2013-07-22 13:55:00
7:50 AM,57.2,44.6,63,30.25,10.0,Calm,Calm,-,N/A,,Scattered Clouds,0,2013-07-22 14:50:00
8:50 AM,64.4,44.6,49,30.25,10.0,Calm,Calm,-,N/A,,Scattered Clouds,0,2013-07-22 15:50:00
9:45 AM,73.4,46.4,38,30.24,10.0,Calm,Calm,-,N/A,,Scattered Clouds,0,2013-07-22 16:45:00
10:45 AM,78.8,44.6,30,30.23,10.0,NW,4.6,-,N/A,,Scattered Clouds,310,2013-07-22 17:45:00
11:50 AM,82.4,42.8,25,30.22,10.0,North,5.8,-,N/A,,Scattered Clouds,350,2013-07-22 18:50:00
12:50 PM,82.4,41.0,23,30.21,10.0,WNW,3.5,-,N/A,,Mostly Cloudy,300,2013-07-22 19:50:00
1:50 PM,86.0,44.6,23,30.19,10.0,NW,3.5,-,N/A,,Mostly Cloudy,310,2013-07-22 20:50:00
2:50 PM,87.8,46.4,24,30.18,10.0,West,16.1,-,N/A,,Mostly Cloudy,260,2013-07-22 21:50:00
5:45 PM,80.6,46.4,30,30.18,10.0,West,15.0,24.2,N/A,,Mostly Cloudy,270,2013-07-23 00:45:00
5:55 PM,80.6,46.4,30,30.18,10.0,West,13.8,19.6,N/A,,Clear,270,2013-07-23 00:55:00
6:15 PM,77.0,46.4,34,30.18,10.0,West,15.0,25.3,N/A,,Clear,270,2013-07-23 01:15:00
6:35 PM,75.2,46.4,36,30.19,10.0,West,12.7,23.0,N/A,,Clear,280,2013-07-23 01:35:00
6:55 PM,75.2,46.4,36,30.19,10.0,West,12.7,-,N/A,,Clear,270,2013-07-23 01:55:00
7:15 PM,73.4,46.4,38,30.20,10.0,WSW,10.4,-,N/A,,Clear,250,2013-07-23 02:15:00
7:35 PM,73.4,44.6,36,30.21,10.0,WNW,9.2,-,N/A,,Clear,290,2013-07-23 02:35:00
7:55 PM,71.6,42.8,35,30.22,10.0,WNW,10.4,-,N/A,,Clear,290,2013-07-23 02:55:00
8:15 PM,71.6,41.0,33,30.22,10.0,West,10.4,-,N/A,,Clear,280,2013-07-23 03:15:00
8:35 PM,69.8,41.0,35,30.22,10.0,West,8.1,-,N/A,,Clear,280,2013-07-23 03:35:00
8:55 PM,69.8,41.0,35,30.23,10.0,WNW,8.1,-,N/A,,Clear,290,2013-07-23 03:55:00
9:15 PM,66.2,41.0,40,30.24,10.0,SW,3.5,-,N/A,,Clear,220,2013-07-23 04:15:00
9:35 PM,64.4,39.2,40,30.25,10.0,SSE,3.5,-,N/A,,Clear,160,2013-07-23 04:35:00
9:55 PM,62.6,44.6,52,30.25,10.0,SSE,4.6,-,N/A,,Clear,150,2013-07-23 04:55:00
10:15 PM,60.8,42.8,52,30.26,10.0,South,4.6,-,N/A,,Clear,180,2013-07-23 05:15:00
10:35 PM,57.2,41.0,55,30.25,10.0,SW,4.6,-,N/A,,Clear,220,2013-07-23 05:35:00
10:55 PM,59.0,41.0,51,30.27,10.0,SE,6.9,-,N/A,,Clear,140,2013-07-23 05:55:00
11:15 PM,55.4,41.0,58,30.27,10.0,WSW,5.8,-,N/A,,Clear,250,2013-07-23 06:15:00
11:35 PM,57.2,41.0,55,30.27,10.0,Calm,Calm,-,N/A,,Clear,0,2013-07-23 06:35:00
11:55 PM,60.8,41.0,48,30.28,10.0,East,3.5,-,N/A,,Clear,90,2013-07-23 06:55:00